Stündliche Wetter Bolshie Polyany

Heute, 16 Januar, Samstag

Zeit Temperatur Niederschläge Wind Luftdruck Luftfeuchtigkeit
00:00 -15°C° 0.9 mm 4 m/S 739 mmHg 95%
01:00 -15°C° 1.4 mm 4 m/S 738 mmHg 95%
02:00 -15°C° 1.4 mm 4 m/S 737 mmHg 95%
03:00 -15°C° 1.4 mm 4 m/S 736 mmHg 95%
04:00 -14°C° 1.1 mm 3 m/S 736 mmHg 95%
05:00 -14°C° 1.1 mm 3 m/S 735 mmHg 95%
06:00 -14°C° 1.1 mm 2 m/S 735 mmHg 95%
07:00 -15°C° 0.6 mm 3 m/S 735 mmHg 95%
08:00 -15°C° 0.6 mm 3 m/S 735 mmHg 95%
09:00 -15°C° 0.6 mm 3 m/S 735 mmHg 95%
10:00 -16°C° 0.2 mm 4 m/S 735 mmHg 94%
11:00 -16°C° 0.2 mm 4 m/S 735 mmHg 93%
12:00 -15°C° 0.2 mm 4 m/S 735 mmHg 92%
13:00 -15°C° 0.1 mm 5 m/S 736 mmHg 92%
14:00 -15°C° 0.1 mm 5 m/S 736 mmHg 92%
15:00 -15°C° 0.1 mm 5 m/S 736 mmHg 92%
16:00 -17°C° 0.1 mm 5 m/S 737 mmHg 93%
17:00 -17°C° 0.1 mm 5 m/S 737 mmHg 93%
18:00 -18°C° 0.1 mm 5 m/S 737 mmHg 93%
19:00 -18°C° 0 mm 5 m/S 738 mmHg 93%
20:00 -18°C° 0 mm 5 m/S 738 mmHg 93%
21:00 -19°C° 0 mm 5 m/S 739 mmHg 93%
22:00 -19°C° 0 mm 5 m/S 739 mmHg 94%
23:00 -19°C° 0 mm 4 m/S 739 mmHg 94%

Morgen, 17 Januar, Sonntag

Zeit Temperatur Niederschläge Wind Luftdruck Luftfeuchtigkeit
00:00 -20°C° 0 mm 4 m/S 740 mmHg 95%
01:00 -20°C° 0 mm 4 m/S 740 mmHg 95%
02:00 -22°C° 0 mm 4 m/S 741 mmHg 95%
03:00 -22°C° 0 mm 4 m/S 741 mmHg 96%
04:00 -23°C° 0 mm 4 m/S 742 mmHg 96%
05:00 -24°C° 0 mm 4 m/S 742 mmHg 97%
06:00 -24°C° 0 mm 4 m/S 742 mmHg 97%
07:00 -24°C° 0 mm 3 m/S 743 mmHg 98%
08:00 -24°C° 0 mm 3 m/S 743 mmHg 98%
09:00 -25°C° 0 mm 3 m/S 744 mmHg 98%
10:00 -24°C° 0 mm 3 m/S 744 mmHg 97%
11:00 -23°C° 0 mm 3 m/S 745 mmHg 96%
12:00 -22°C° 0 mm 3 m/S 745 mmHg 94%
13:00 -20°C° 0 mm 2 m/S 745 mmHg 95%
14:00 -20°C° 0 mm 2 m/S 746 mmHg 95%
15:00 -20°C° 0 mm 2 m/S 746 mmHg 95%
16:00 -21°C° 0 mm 2 m/S 747 mmHg 96%
17:00 -23°C° 0 mm 2 m/S 747 mmHg 97%
18:00 -24°C° 0 mm 2 m/S 748 mmHg 97%
19:00 -21°C° 0 mm 1 m/S 748 mmHg 98%
20:00 -22°C° 0 mm 1 m/S 748 mmHg 98%
21:00 -22°C° 0 mm 1 m/S 748 mmHg 99%
22:00 -23°C° 0 mm 1 m/S 749 mmHg 99%
23:00 -24°C° 0 mm 0 m/S 749 mmHg 99%

übermorgen, 18 Januar, Montag

Zeit Temperatur Niederschläge Wind Luftdruck Luftfeuchtigkeit
00:00 -24°C° 0 mm 0 m/S 749 mmHg 99%
01:00 -25°C° 0 mm 0 m/S 749 mmHg 99%
02:00 -25°C° 0 mm 0 m/S 749 mmHg 99%
03:00 -25°C° 0 mm 0 m/S 749 mmHg 99%
04:00 -25°C° 0 mm 1 m/S 749 mmHg 99%
05:00 -25°C° 0 mm 1 m/S 749 mmHg 99%
06:00 -25°C° 0 mm 1 m/S 749 mmHg 98%
07:00 -25°C° 0 mm 1 m/S 750 mmHg 98%
08:00 -26°C° 0 mm 0 m/S 750 mmHg 98%
09:00 -26°C° 0 mm 0 m/S 750 mmHg 97%
10:00 -24°C° 0 mm 0 m/S 750 mmHg 96%
11:00 -23°C° 0 mm 0 m/S 750 mmHg 95%
12:00 -22°C° 0 mm 1 m/S 750 mmHg 94%
13:00 -21°C° 0 mm 1 m/S 750 mmHg 94%
14:00 -21°C° 0 mm 1 m/S 750 mmHg 94%
15:00 -21°C° 0 mm 1 m/S 750 mmHg 94%
16:00 -21°C° 0 mm 1 m/S 750 mmHg 95%
17:00 -21°C° 0 mm 1 m/S 750 mmHg 95%
18:00 -21°C° 0 mm 1 m/S 750 mmHg 95%
19:00 -21°C° 0 mm 1 m/S 750 mmHg 95%
20:00 -21°C° 0 mm 1 m/S 750 mmHg 95%
21:00 -21°C° 0 mm 1 m/S 750 mmHg 95%
22:00 -21°C° 0.2 mm 1 m/S 750 mmHg 96%
23:00 -20°C° 0.2 mm 1 m/S 750 mmHg 97%

19 Januar, Dienstag

Zeit Temperatur Niederschläge Wind Luftdruck Luftfeuchtigkeit
00:00 -20°C° 0.2 mm 1 m/S 750 mmHg 97%
01:00 -20°C° 0.2 mm 1 m/S 749 mmHg 97%
02:00 -20°C° 0.2 mm 1 m/S 749 mmHg 98%
03:00 -20°C° 0.2 mm 1 m/S 749 mmHg 98%
04:00 -20°C° 0.2 mm 1 m/S 749 mmHg 98%
05:00 -20°C° 0.2 mm 1 m/S 749 mmHg 98%
06:00 -20°C° 0.2 mm 1 m/S 749 mmHg 98%
07:00 -20°C° 0.1 mm 1 m/S 749 mmHg 98%
08:00 -20°C° 0.1 mm 1 m/S 749 mmHg 98%
09:00 -20°C° 0.1 mm 1 m/S 749 mmHg 98%
10:00 -21°C° 0.1 mm 2 m/S 749 mmHg 97%
11:00 -21°C° 0.1 mm 2 m/S 749 mmHg 96%
12:00 -20°C° 0.1 mm 2 m/S 749 mmHg 94%
13:00 -20°C° 0.1 mm 2 m/S 748 mmHg 95%
14:00 -20°C° 0.1 mm 2 m/S 748 mmHg 95%
15:00 -20°C° 0.1 mm 2 m/S 748 mmHg 95%
16:00 -20°C° 0.1 mm 2 m/S 748 mmHg 96%
17:00 -20°C° 0.1 mm 2 m/S 748 mmHg 96%
18:00 -20°C° 0.1 mm 2 m/S 749 mmHg 97%
19:00 -20°C° 0.1 mm 2 m/S 749 mmHg 97%
20:00 -21°C° 0.1 mm 2 m/S 749 mmHg 97%
21:00 -21°C° 0.1 mm 2 m/S 749 mmHg 97%
22:00 -21°C° 0.1 mm 2 m/S 749 mmHg 97%
23:00 -21°C° 0.1 mm 2 m/S 750 mmHg 97%

20 Januar, Mittwoch

Zeit Temperatur Niederschläge Wind Luftdruck Luftfeuchtigkeit
00:00 -21°C° 0.1 mm 2 m/S 750 mmHg 97%
01:00 -21°C° 0 mm 2 m/S 750 mmHg 97%
02:00 -21°C° 0 mm 2 m/S 750 mmHg 97%
03:00 -23°C° 0 mm 3 m/S 751 mmHg 97%
04:00 -24°C° 0 mm 3 m/S 751 mmHg 97%
05:00 -25°C° 0 mm 3 m/S 751 mmHg 98%
06:00 -27°C° 0 mm 3 m/S 752 mmHg 98%
07:00 -27°C° 0 mm 3 m/S 752 mmHg 98%
08:00 -27°C° 0 mm 2 m/S 753 mmHg 97%
09:00 -28°C° 0 mm 2 m/S 753 mmHg 97%
10:00 -27°C° 0 mm 2 m/S 753 mmHg 94%
11:00 -26°C° 0 mm 2 m/S 754 mmHg 92%
12:00 -25°C° 0 mm 2 m/S 754 mmHg 90%
13:00 -25°C° 0 mm 2 m/S 754 mmHg 90%
14:00 -25°C° 0 mm 2 m/S 754 mmHg 90%
15:00 -25°C° 0 mm 2 m/S 755 mmHg 90%
16:00 -26°C° 0 mm 2 m/S 755 mmHg 89%
17:00 -27°C° 0 mm 2 m/S 756 mmHg 89%
18:00 -25°C° 0 mm 1 m/S 756 mmHg 88%
19:00 -25°C° 0 mm 1 m/S 757 mmHg 87%
20:00 -27°C° 0 mm 1 m/S 757 mmHg 86%
21:00 -26°C° 0 mm 0 m/S 757 mmHg 86%
22:00 -26°C° 0 mm 0 m/S 757 mmHg 84%
23:00 -27°C° 0 mm 1 m/S 757 mmHg 83%

21 Januar, Donnerstag

Zeit Temperatur Niederschläge Wind Luftdruck Luftfeuchtigkeit
00:00 -25°C° 0 mm 1 m/S 757 mmHg 81%
01:00 -25°C° 0 mm 1 m/S 757 mmHg 82%
02:00 -28°C° 0 mm 2 m/S 757 mmHg 82%
03:00 -28°C° 0 mm 2 m/S 758 mmHg 82%
04:00 -28°C° 0 mm 2 m/S 757 mmHg 85%
05:00 -27°C° 0 mm 2 m/S 757 mmHg 88%
06:00 -29°C° 0 mm 3 m/S 757 mmHg 91%
07:00 -27°C° 0 mm 3 m/S 757 mmHg 93%
08:00 -27°C° 0 mm 4 m/S 757 mmHg 95%
09:00 -26°C° 0 mm 4 m/S 757 mmHg 97%
10:00 -24°C° 0 mm 4 m/S 757 mmHg 96%
11:00 -24°C° 0 mm 5 m/S 756 mmHg 95%
12:00 -21°C° 0 mm 5 m/S 756 mmHg 93%
13:00 -21°C° 0 mm 6 m/S 755 mmHg 92%
14:00 -20°C° 0 mm 6 m/S 755 mmHg 91%
15:00 -20°C° 0 mm 6 m/S 754 mmHg 90%
16:00 -19°C° 0 mm 7 m/S 753 mmHg 89%
17:00 -18°C° 0 mm 7 m/S 753 mmHg 89%
18:00 -18°C° 0 mm 7 m/S 753 mmHg 88%
19:00 -17°C° 0.3 mm 7 m/S 752 mmHg 90%
20:00 -15°C° 0.3 mm 7 m/S 752 mmHg 92%
21:00 -15°C° 0.3 mm 7 m/S 752 mmHg 93%
22:00 -14°C° 0.2 mm 7 m/S 752 mmHg 93%
23:00 -13°C° 0.2 mm 7 m/S 751 mmHg 93%
Mehr zeigen

Wir brauchen deine Erlaubnis

Meteoprog und unser Service Anbieter werden persönliche Daten aufbewahren, so wie Cookies, Geräte Bezeichnung oder ähnliche Technologien von deinem Gerät und Prozess, so wie Persönliche Daten Inhalte und Werbungen, genauso wie social Media und den Verkehr zu analysieren.

  • Aufbewahrung und/oder Zugang zu deiner Geräte Informationen.

    Cookies, Geräte Bezeichnung oder andere Informationen, können aufbewahrt oder Zugang zu deinem Gerät erhalten, für den Grund, der oben angegeben wird.

  • Personalisierte Werbung und Inhalte, Messungen, Einblick in das Publikum und Produkt Entwicklung.

    Werbungen und Inhalte können personalisiert werden, basierend auf ein Profil. Mehr Daten können besser personalisierte Werbungen und Inhalte hinzufügen. Werbung und Inhalte können gezeigt und gemessen werden. Einblicke über das Publikum, welche die Werbung gesehen haben und den Inhalt, können abgeleitet werden. So wie Daten können genutzt werden, um es zu verbessern oder die Benutzer Erfahrung zu verbessern das System und die Software.

Wenn du “Ich stimme zu” klickst, erlaubst du uns, die Cookies zu benutzen die Geräte Bezeichnung, den Web oder ähnliche Technologien zu benutzen. Deine Settings, können in deinem Gerät bei deinem Browser geändert werden.

Für den bestimmten Zweck, berechtigten Interessen beruhen darauf, mehr als auf den Inhalt. Du kannst mehr darüber in unseren Privaten und Cookie Politik lesen.